Hourly Data Report for January 06, 2003

TORONTO CITY
ONTARIO

43°40'00.000" N
79°24'00.000" W
112.50 m
6158355
71508
XTO

Download Data

Hourly Data (January 2003)
Hourly Data Report for January 6, 2003
TIME
LST
Temp Definition
°C
Dew Point Definition
°C
Rel Hum Definition
%
Precip. Amount Definition
mm

Wind Dir Definition
10's deg

Wind Spd Definition
km/h
Visibility Definition
km
Stn Press Definition
kPa
Hmdx Definition


Wind Chill Definition


Weather Definition


00:00 -2.2 -5.1 80     0 LegendMM 100.13     LegendNANA
01:00
02:00 -2.1 -5.5 77     0 LegendMM 100.08     LegendNANA
03:00 -2.1 -5.7 76     0 LegendMM 100.07     LegendNANA
04:00 -2.2 -5.4 79     0 LegendMM 100.05     LegendNANA
05:00
06:00 -2.6 -3.8 91     0 LegendMM 100.00     LegendNANA
07:00 -2.4 -3.6 91     0 LegendMM 99.97     LegendNANA
08:00 -2.0 -3.2 91     0 LegendMM 99.97     LegendNANA
09:00 -2.0 -3.2 91     0 LegendMM 99.97     LegendNANA
10:00 -1.2 -2.7 90     0 LegendMM 99.97     LegendNANA
11:00 -0.5 -3.0 83     0 LegendMM 99.96     LegendNANA
12:00 -1.0 -4.8 75     0 LegendMM 99.93     LegendNANA
13:00 -1.3 -5.2 75     0 LegendMM 99.94     LegendNANA
14:00 -1.7 -5.8 74     0 LegendMM 99.98     LegendNANA
15:00 -3.1 -6.8 76     0 LegendMM 100.10     LegendNANA
16:00 -3.9 -8.1 73     0 LegendMM 100.22     LegendNANA
17:00 -4.8 -9.0 72     0 LegendMM 100.33     LegendNANA
18:00 -5.6 -9.9 72     0 LegendMM 100.44     LegendNANA
19:00 -6.2 -10.9 69     0 LegendMM 100.55     LegendNANA
20:00
21:00 -8.2 -13.0 68     0 LegendMM 100.65     LegendNANA
22:00 -9.2 -13.7 70     0 LegendMM 100.66     LegendNANA
23:00 -9.6 -14.1 70     0 LegendMM 100.66     LegendNANA

Notes on Data Quality.

Legend

  • E = Estimated
  • M = Missing
  • NA = Not Available*
  • [empty] = Indicates an unobserved value
Date modified: